TimeCST,TemperatureF,Dew PointF,Humidity,Sea Level PressureIn,VisibilityMPH,Wind Direction,Wind SpeedMPH,Gust SpeedMPH,PrecipitationIn,Events,Conditions,WindDirDegrees,DateUTC
12:56 AM,55.9,51.1,84,30.06,10.0,Calm,Calm,-,N/A,,Mostly Cloudy,0,2012-12-06 06:56:00
1:56 AM,55.9,51.1,84,30.05,10.0,Calm,Calm,-,N/A,,Clear,0,2012-12-06 07:56:00
2:56 AM,53.1,48.9,86,30.03,8.0,Calm,Calm,-,N/A,,Clear,0,2012-12-06 08:56:00
3:56 AM,53.1,48.9,86,30.04,10.0,Calm,Calm,-,N/A,,Clear,0,2012-12-06 09:56:00
4:56 AM,54.0,48.9,83,30.04,10.0,East,3.5,-,N/A,,Clear,100,2012-12-06 10:56:00
5:56 AM,53.1,48.0,83,30.06,10.0,Calm,Calm,-,N/A,,Clear,0,2012-12-06 11:56:00
6:56 AM,54.0,48.9,83,30.07,10.0,Calm,Calm,-,N/A,,Clear,0,2012-12-06 12:56:00
7:56 AM,59.0,52.0,78,30.07,10.0,ESE,4.6,-,N/A,,Clear,120,2012-12-06 13:56:00
8:56 AM,64.9,54.0,68,30.08,10.0,ESE,6.9,-,N/A,,Clear,120,2012-12-06 14:56:00
9:56 AM,71.1,55.9,59,30.08,10.0,SSE,8.1,-,N/A,,Clear,150,2012-12-06 15:56:00
10:56 AM,73.0,55.0,53,30.05,10.0,SE,6.9,-,N/A,,Clear,140,2012-12-06 16:56:00
11:56 AM,75.9,52.0,43,30.02,10.0,SE,9.2,-,N/A,,Clear,130,2012-12-06 17:56:00
12:56 PM,77.0,51.1,40,30.00,10.0,Variable,3.5,-,N/A,,Clear,0,2012-12-06 18:56:00
1:56 PM,77.0,50.0,39,29.99,10.0,SE,5.8,-,N/A,,Partly Cloudy,140,2012-12-06 19:56:00
2:56 PM,77.0,50.0,39,29.98,10.0,East,11.5,-,N/A,,Mostly Cloudy,90,2012-12-06 20:56:00
3:56 PM,73.9,50.0,43,29.98,10.0,ESE,6.9,-,N/A,,Clear,120,2012-12-06 21:56:00
4:56 PM,68.0,53.1,59,29.99,10.0,Calm,Calm,-,N/A,,Partly Cloudy,0,2012-12-06 22:56:00
5:56 PM,64.9,53.1,65,30.00,10.0,SE,3.5,-,N/A,,Clear,130,2012-12-06 23:56:00
6:56 PM,63.0,53.1,70,30.01,10.0,SE,4.6,-,N/A,,Clear,130,2012-12-07 00:56:00
7:56 PM,62.1,54.0,75,30.01,10.0,ESE,5.8,-,N/A,,Clear,110,2012-12-07 01:56:00
8:56 PM,62.1,55.0,78,30.01,10.0,East,5.8,-,N/A,,Scattered Clouds,100,2012-12-07 02:56:00
9:56 PM,61.0,54.0,78,30.02,10.0,ESE,5.8,-,N/A,,Mostly Cloudy,110,2012-12-07 03:56:00
10:56 PM,61.0,54.0,78,30.01,10.0,ESE,6.9,-,N/A,,Clear,110,2012-12-07 04:56:00
11:56 PM,59.0,54.0,83,30.00,10.0,ESE,6.9,-,N/A,,Clear,120,2012-12-07 05:56:00